2024/03/26 00:00:00,---, 8.1
2024/03/26 00:10:00,82.2, 8.0
2024/03/26 00:20:00,83.1, 8.3
2024/03/26 00:30:00,84.1, 8.1
2024/03/26 00:40:00,84.9, 8.0
2024/03/26 00:50:00,85.2, 7.9
2024/03/26 01:00:00,85.2, 7.9
2024/03/26 01:10:00,86.9, 7.9
2024/03/26 01:20:00,84.6, 7.9
2024/03/26 01:30:00,84.4, 8.0
2024/03/26 01:40:00,83.8, 7.8
2024/03/26 01:50:00,83.4, 7.8
2024/03/26 02:00:00,83.7, 7.9
2024/03/26 02:10:00,85.6, 7.8
2024/03/26 02:20:00,86.1, 7.9
2024/03/26 02:30:00,87.1, 7.9
2024/03/26 02:40:00,87.2, 7.7
2024/03/26 02:50:00,85.9, 7.5
2024/03/26 03:00:00,86.2, 7.4
2024/03/26 03:10:00,85.9, 7.3
2024/03/26 03:20:00,86.5, 7.2
2024/03/26 03:30:00,86.5, 7.0
2024/03/26 03:40:00,86.2, 7.1
2024/03/26 03:50:00,85.7, 7.0
2024/03/26 04:00:00,85.7, 6.8
2024/03/26 04:10:00,85.4, 6.9
2024/03/26 04:20:00,85.9, 6.9
2024/03/26 04:30:00,---, 6.8
2024/03/26 04:40:00,---, 6.8
2024/03/26 04:50:00,83.3, 6.9
2024/03/26 05:00:00,82.9, 6.9
2024/03/26 05:10:00,82.9, 6.8
2024/03/26 05:20:00,83.0, 6.9
2024/03/26 05:30:00,83.5, 6.7
2024/03/26 05:40:00,83.7, 6.9
2024/03/26 05:50:00,84.2, 7.0
2024/03/26 06:00:00,85.0, 6.8
2024/03/26 06:10:00,84.5, 6.9
2024/03/26 06:20:00,83.7, 6.7
2024/03/26 06:30:00,84.1, 6.7
2024/03/26 06:40:00,---, 6.8
2024/03/26 06:50:00,83.5, 6.7
2024/03/26 07:00:00, 0.0, 6.9
2024/03/26 07:10:00, 0.0, 6.9
2024/03/26 07:20:00,85.5, 6.7
2024/03/26 07:30:00,85.5, 6.7
2024/03/26 07:40:00, 0.0, 6.8
2024/03/26 07:50:00, 0.0, 7.2
2024/03/26 08:00:00,---, 7.1
2024/03/26 08:10:00,85.3, 6.9
2024/03/26 08:20:00,---, 7.1
2024/03/26 08:30:00,---, 7.2
2024/03/26 08:40:00, 0.0, 7.1
2024/03/26 08:50:00, 0.0, 7.1
2024/03/26 09:00:00, 0.0, 6.9
2024/03/26 09:10:00, 0.0, 7.1
2024/03/26 09:20:00,---, 7.3
2024/03/26 09:30:00,---, 7.4
2024/03/26 09:40:00,---, 7.3
2024/03/26 09:50:00, 0.0, 7.4
2024/03/26 10:00:00, 0.0, 7.5
2024/03/26 10:10:00, 0.0, 7.3
2024/03/26 10:20:00, 0.0, 7.3
2024/03/26 10:30:00, 0.0, 7.3
2024/03/26 10:40:00,---, 7.2
2024/03/26 10:50:00, 0.0, 7.2
2024/03/26 11:00:00, 0.0, 7.3
2024/03/26 11:10:00, 0.0, 7.2
2024/03/26 11:20:00, 0.0, 7.1
2024/03/26 11:30:00,---, 7.0
2024/03/26 11:40:00,---, 6.8
2024/03/26 11:50:00,---, 6.6
2024/03/26 12:00:00, 0.0, 6.6
2024/03/26 12:10:00, 0.0, 6.5
2024/03/26 12:20:00, 0.0, 6.4
2024/03/26 12:30:00, 0.0, 6.2
2024/03/26 12:40:00,---, 5.8
2024/03/26 12:50:00,35.8, 5.4
2024/03/26 13:00:00, 0.0, 5.5
2024/03/26 13:10:00,10.0, 5.5
2024/03/26 13:20:00,24.0, 5.1
2024/03/26 13:30:00,---, 5.3
2024/03/26 13:40:00,26.0, 5.4
2024/03/26 13:50:00, 0.0, 5.5
2024/03/26 14:00:00, 9.6, 5.5
2024/03/26 14:10:00,26.7, 5.1
2024/03/26 14:20:00,27.0, 5.5
2024/03/26 14:30:00,---, 5.4
2024/03/26 14:40:00,---, 5.3
2024/03/26 14:50:00,---, 5.2
2024/03/26 15:00:00,---, 5.2
2024/03/26 15:10:00, 3.2, 4.8
2024/03/26 15:20:00, 0.0, 5.0
2024/03/26 15:30:00, 0.0, 4.9
2024/03/26 15:40:00, 0.0, 5.0
2024/03/26 15:50:00, 0.0, 5.0
2024/03/26 16:00:00, 0.0, 5.0
2024/03/26 16:10:00, 0.0, 5.0
2024/03/26 16:20:00, 0.0, 5.0
2024/03/26 16:30:00, 0.0, 5.0
2024/03/26 16:40:00, 0.0, 4.8
2024/03/26 16:50:00,---, 4.8
2024/03/26 17:00:00,---, 4.5
2024/03/26 17:10:00,---, 4.4
2024/03/26 17:20:00,81.8, 4.5
2024/03/26 17:30:00,81.7, 4.5
2024/03/26 17:40:00,81.9, 4.5
2024/03/26 17:50:00,82.4, 4.2
2024/03/26 18:00:00,81.9, 4.3
2024/03/26 18:10:00,81.5, 4.4
2024/03/26 18:20:00,81.5, 4.1
2024/03/26 18:30:00,81.7, 4.3
2024/03/26 18:40:00,81.3, 4.5
2024/03/26 18:50:00,81.4, 4.5
2024/03/26 19:00:00,81.4, 4.2
2024/03/26 19:10:00,81.2, 4.3
2024/03/26 19:20:00,81.0, 4.3
2024/03/26 19:30:00,81.1, 4.3
2024/03/26 19:40:00,81.1, 4.6
2024/03/26 19:50:00,81.0, 4.5
2024/03/26 20:00:00,81.0, 4.6
2024/03/26 20:10:00,80.9, 4.6
2024/03/26 20:20:00,81.0, 4.7
2024/03/26 20:30:00,81.0, 4.6
2024/03/26 20:40:00,81.0, 4.5
2024/03/26 20:50:00,81.1, 4.5
2024/03/26 21:00:00,81.0, 4.6
2024/03/26 21:10:00,80.9, 4.3
2024/03/26 21:20:00,81.0, 4.4
2024/03/26 21:30:00,81.1, 4.7
2024/03/26 21:40:00,81.2, 4.7
2024/03/26 21:50:00,48.6, 4.5
2024/03/26 22:00:00, 0.0, 4.3
2024/03/26 22:10:00,---, 4.3
2024/03/26 22:20:00,56.7, 4.3
2024/03/26 22:30:00,81.1, 4.3
2024/03/26 22:40:00,---, 4.1
2024/03/26 22:50:00,48.6, 4.1
2024/03/26 23:00:00, 0.0, 3.9
2024/03/26 23:10:00,24.3, 4.0
2024/03/26 23:20:00,---, 4.0
2024/03/26 23:30:00,---, 3.6
2024/03/26 23:40:00, 0.0, 3.3
2024/03/26 23:50:00, 0.0, 3.1
